[[{"header":{"parameterUnit":"m.s-1","parameterCategory":1,"la1":30.2991,"la2":30.254,"lo1":-89.0895,"lo2":-89.0444,"dy":0.0017,"dx":0.0017,"nx":28,"ny":28,"refTime":"2023-11-23T03:00:00:Z","depth":0,"parameterNumber":2,"parameterNumberName":"U-component_of_WINDS"},"data":[0,0,0,0,0,0,0,0,0,0,0,0,0,0,0,0,0,0,0,0,0,0,0,0,0,0,0,0,0,0,0,0,0,0,0,0,0,0,0,0,0,0,0,0,0,0,0,0,0,0,0,0,0,0,0,0,0,0,-0.2212,-0.2213,0,-0.2336,-0.2337,-0.2339,-0.2326,-0.2324,-0.2322,-0.232,-0.2452,-0.2458,-0.2463,0,0,0,0,0,0,0,0,0,0,0,0,0,-0.1968,-0.1972,-0.2211,-0.2213,-0.2215,-0.2336,-0.2337,-0.2339,-0.2326,-0.2324,-0.2321,-0.2319,-0.2451,-0.2457,-0.2463,0,0,0,0,0,0,0,0,0,0,0,0,0,-0.2081,-0.1974,-0.2211,-0.2222,-0.2225,-0.2335,-0.2337,-0.2339,-0.2327,-0.2324,-0.2321,-0.2318,-0.2449,-0.2456,-0.2464,-0.2573,0,0,-0.2489,-0.2492,0,0,0,0,0,0,0,0,-0.2075,-0.209,-0.2219,-0.2222,-0.2225,-0.2312,-0.23,-0.2418,-0.2327,-0.2288,-0.232,-0.2316,-0.2408,-0.242,-0.245,-0.2579,-0.2585,-0.249,-0.2494,-0.2498,-0.25,0,0,0,0,0,0,0,-0.2067,-0.2085,-0.2261,-0.2221,-0.2225,-0.2223,-0.2236,-0.2322,-0.2364,-0.2291,-0.2291,-0.2305,-0.2409,-0.2442,-0.2453,-0.2587,-0.2489,-0.2497,-0.2501,-0.2505,-0.2814,-0.2817,0,0,0,0,0,0,-0.2056,-0.2078,-0.2257,-0.2264,-0.2141,-0.223,-0.2244,-0.2287,-0.2362,-0.2371,-0.2308,-0.2304,-0.243,-0.2443,-0.2457,-0.2591,-0.2498,-0.2505,-0.251,-0.281,-0.2814,-0.2818,0,0,0,0,0,0,-0.205,-0.2072,-0.2252,-0.2171,-0.2194,-0.2237,-0.2285,-0.2291,-0.2323,-0.2375,-0.2382,-0.2333,-0.2428,-0.2446,-0.2544,-0.2595,-0.2509,-0.2516,-0.2806,-0.2811,-0.2816,-0.2858,0,0,0,0,0,0,-0.2043,-0.207,-0.2111,-0.2172,-0.2198,-0.2336,-0.2289,-0.2296,-0.2337,-0.2333,-0.2401,-0.2409,-0.2427,-0.2532,-0.2552,-0.2605,-0.2523,-0.2802,-0.2809,-0.2814,-0.2853,-0.2864,-0.2874,0,0,0,0,0,-0.2035,-0.2118,-0.2113,-0.2134,-0.225,-0.2338,-0.2354,-0.2371,-0.2341,-0.2383,-0.2416,-0.2407,-0.2586,-0.2543,-0.2565,-0.2621,-0.2799,-0.2807,-0.2814,-0.2848,-0.2862,-0.2874,0,0,0,0,0,0,-0.2064,-0.2127,-0.2121,-0.2227,-0.2277,-0.2336,-0.239,-0.2385,-0.2447,-0.2441,-0.2462,-0.2477,-0.2577,-0.2608,-0.2559,-0.273,-0.2689,-0.2701,-0.2707,-0.2721,-0.2731,-0.2723,-0.2529,0,0,0,0,0,-0.2082,-0.2147,-0.2199,-0.2287,-0.2313,-0.2347,-0.2386,-0.2395,-0.2449,-0.2471,-0.2511,-0.2565,-0.2633,-0.2678,-0.2744,-0.2856,-0.2872,-0.2906,-0.2916,-0.2925,-0.2936,-0.3,-0.3016,-0.2843,-0.2843,-0.2843,0,0,-0.2121,-0.2163,-0.2204,-0.2294,-0.2334,-0.2403,-0.2365,-0.2439,-0.2491,-0.2482,-0.2578,-0.2609,-0.2671,-0.2777,-0.2826,-0.2806,-0.2987,-0.2935,-0.2941,-0.2948,-0.3009,-0.3026,-0.304,-0.2848,-0.2847,-0.2846,0,0,-0.2228,-0.2265,-0.2344,-0.2384,-0.2445,-0.2467,-0.2486,-0.2545,-0.2565,-0.2661,-0.2656,-0.2719,-0.2836,-0.288,-0.2918,-0.3041,-0.3036,-0.3062,-0.312,-0.3181,-0.3195,-0.3207,-0.3253,-0.3269,-0.3073,-0.3073,-0.3073,0,-0.227,-0.2372,-0.2385,-0.246,-0.2501,-0.2494,-0.2575,-0.2614,-0.2694,-0.2723,-0.2699,-0.2846,-0.2887,-0.3004,-0.3034,-0.3064,-0.3088,-0.3056,-0.3191,-0.3204,-0.3216,-0.326,-0.3277,-0.3076,-0.3076,-0.3075,-0.3075,0,-0.2421,-0.2492,-0.2548,-0.2623,-0.267,-0.2748,-0.2775,-0.2821,-0.2825,-0.285,-0.2948,-0.2997,-0.3073,-0.3101,-0.3106,-0.3219,-0.3206,-0.3186,-0.3145,-0.3235,-0.3277,-0.3294,-0.308,-0.3079,-0.3078,-0.3077,0,0,-0.2552,-0.2633,-0.2653,-0.2688,-0.2754,-0.281,-0.2887,-0.296,-0.3,-0.3055,-0.3122,-0.3221,-0.3203,-0.3246,-0.3257,-0.331,-0.3407,-0.3285,-0.3287,-0.3308,-0.3537,-0.3553,-0.3572,-0.3403,-0.3406,-0.3408,-0.3533,0,-0.2667,-0.2803,-0.2817,-0.2939,-0.3006,-0.3,-0.3067,-0.3116,-0.3141,-0.3203,-0.3231,-0.3302,-0.3272,-0.3298,-0.3351,-0.3384,-0.3454,-0.3375,-0.3468,-0.3471,-0.3455,-0.3594,-0.3611,-0.3726,-0.3549,-0.3552,-0.3554,0,-0.282,-0.2878,-0.3006,-0.3063,-0.3092,-0.3152,-0.3221,-0.3278,-0.3334,-0.3349,-0.3396,-0.34,-0.3482,-0.3435,-0.3549,-0.3495,-0.3534,-0.3556,-0.3561,-0.3572,-0.352,-0.3612,-0.3763,-0.3781,-0.3579,-0.3577,-0.3575,0,-0.2906,-0.3015,-0.3107,-0.3136,-0.3204,-0.3247,-0.3278,-0.333,-0.3373,-0.3433,-0.3462,-0.353,-0.3569,-0.3623,-0.3646,-0.3609,-0.376,-0.3714,-0.3776,-0.3776,-0.3811,-0.3809,-0.3973,-0.3831,-0.3831,-0.383,-0.383,0,-0.3035,-0.3114,-0.3146,-0.3203,-0.3292,-0.3308,-0.3396,-0.3425,-0.3472,-0.3535,-0.3533,-0.3593,-0.3618,-0.3682,-0.37,-0.3794,-0.381,-0.3826,-0.3831,-0.3828,-0.3826,-0.3856,-0.3849,-0.3835,-0.3834,-0.3833,-0.3832,0,-0.3146,-0.3171,-0.327,-0.3326,-0.3342,-0.3405,-0.3454,-0.351,-0.3533,-0.3613,-0.3633,-0.3671,-0.3747,-0.3773,-0.3865,-0.3878,-0.3986,-0.3983,-0.3968,-0.3969,-0.4031,-0.4025,-0.4221,-0.4249,-0.4087,-0.4088,-0.4089,0,-0.3228,-0.3289,-0.3351,-0.3392,-0.3424,-0.3491,-0.3534,-0.3552,-0.3598,-0.3665,-0.3713,-0.3788,-0.3849,-0.397,-0.4007,-0.4078,-0.4077,-0.4141,-0.4088,-0.4084,-0.4082,-0.4079,-0.4086,-0.4152,-0.4154,-0.4155,-0.4156,0,-0.3372,-0.3381,-0.3442,-0.3509,-0.356,-0.3614,-0.3665,-0.37,-0.3726,-0.3777,-0.3853,-0.39,-0.3994,-0.4069,-0.4141,-0.4174,-0.4171,-0.4172,-0.419,-0.419,-0.4179,-0.4188,-0.3997,-0.4168,-0.4167,-0.4166,-0.4165,-0.4165,-0.3473,-0.3527,-0.3579,-0.3648,-0.3689,-0.3737,-0.3792,-0.3822,-0.3885,-0.3962,-0.3968,-0.4051,-0.4106,-0.4202,-0.4239,-0.4305,-0.4288,-0.4314,-0.4321,-0.4328,-0.4334,-0.4166,-0.4318,-0.4318,-0.4317,-0.4317,-0.4317,0,-0.3619,-0.3652,-0.3715,-0.3787,-0.3841,-0.383,-0.3887,-0.3934,-0.4006,-0.4056,-0.4116,-0.4204,-0.4276,-0.4318,-0.4391,-0.4436,-0.4437,-0.4455,-0.4454,-0.4462,-0.4344,-0.4322,-0.4454,-0.4454,-0.4454,-0.4454,-0.4454,-0.4454,-0.3701,-0.3793,-0.3808,-0.392,-0.3952,-0.4032,-0.4066,-0.4111,-0.4151,-0.4249,-0.4309,-0.4335,-0.4383,-0.4459,-0.4525,-0.4536,-0.4564,-0.4585,-0.4594,-0.4484,-0.447,-0.4457,-0.4436,-0.459,-0.459,-0.4707,-0.4708,-0.4709]},{"header":{"parameterUnit":"m.s-1","parameterCategory":1,"la1":30.2991,"la2":30.254,"lo1":-89.0895,"lo2":-89.0444,"dy":0.0017,"dx":0.0017,"nx":28,"ny":28,"refTime":"2023-11-23T03:00:00:Z","depth":0,"parameterNumber":3,"parameterNumberName":"V-component_of_WINDS"},"data":[0,0,0,0,0,0,0,0,0,0,0,0,0,0,0,0,0,0,0,0,0,0,0,0,0,0,0,0,0,0,0,0,0,0,0,0,0,0,0,0,0,0,0,0,0,0,0,0,0,0,0,0,0,0,0,0,0,0,-4.3846,-4.3848,0,-4.3946,-4.3947,-4.3948,-4.3876,-4.3873,-4.387,-4.3867,-4.3966,-4.3971,-4.3977,0,0,0,0,0,0,0,0,0,0,0,0,0,-4.3591,-4.3596,-4.3846,-4.3848,-4.3849,-4.3946,-4.3947,-4.3948,-4.3877,-4.3873,-4.3869,-4.3865,-4.3964,-4.3971,-4.3977,0,0,0,0,0,0,0,0,0,0,0,0,0,-4.3697,-4.3597,-4.3846,-4.3825,-4.3824,-4.3945,-4.3947,-4.3949,-4.3878,-4.3873,-4.3868,-4.3864,-4.3962,-4.397,-4.3978,-4.4125,0,0,-4.4004,-4.4007,0,0,0,0,0,0,0,0,-4.3691,-4.3706,-4.3827,-4.3827,-4.3826,-4.3894,-4.3893,-4.4008,-4.3879,-4.3857,-4.3867,-4.3861,-4.3946,-4.3955,-4.3984,-4.413,-4.4134,-4.4005,-4.401,-4.4013,-4.4016,0,0,0,0,0,0,0,-4.3684,-4.3702,-4.3886,-4.3829,-4.3828,-4.3809,-4.3819,-4.3914,-4.3927,-4.3859,-4.3854,-4.3867,-4.3944,-4.3976,-4.3986,-4.4135,-4.4004,-4.4012,-4.4017,-4.402,-4.4404,-4.4409,0,0,0,0,0,0,-4.3679,-4.3696,-4.3882,-4.3889,-4.3745,-4.3818,-4.3829,-4.3877,-4.3925,-4.3928,-4.3871,-4.3863,-4.3964,-4.3976,-4.3989,-4.4163,-4.4013,-4.4021,-4.4026,-4.4399,-4.4405,-4.4411,0,0,0,0,0,0,-4.3674,-4.3696,-4.3878,-4.3791,-4.3813,-4.3827,-4.3882,-4.3881,-4.3913,-4.3935,-4.3936,-4.3901,-4.3961,-4.3977,-4.4091,-4.4165,-4.4025,-4.4032,-4.4393,-4.4401,-4.4408,-4.4513,0,0,0,0,0,0,-4.3667,-4.3695,-4.3752,-4.3793,-4.3818,-4.3981,-4.3886,-4.3887,-4.3928,-4.3919,-4.3963,-4.3966,-4.3958,-4.4079,-4.41,-4.4174,-4.4039,-4.4386,-4.4397,-4.4406,-4.4503,-4.4523,-4.4541,0,0,0,0,0,-4.3658,-4.3777,-4.3755,-4.3778,-4.389,-4.3985,-4.3999,-4.3989,-4.3934,-4.3991,-4.4004,-4.3965,-4.4154,-4.4092,-4.4114,-4.4192,-4.4382,-4.4394,-4.4405,-4.4494,-4.4519,-4.454,0,0,0,0,0,0,-4.3743,-4.3782,-4.3758,-4.3895,-4.3937,-4.3973,-4.4044,-4.4016,-4.4074,-4.4063,-4.4046,-4.4057,-4.4177,-4.4196,-4.4126,-4.4336,-4.4259,-4.4276,-4.4319,-4.4343,-4.4362,-4.4354,-4.4046,0,0,0,0,0,-4.3778,-4.3854,-4.3883,-4.4001,-4.4023,-4.4031,-4.4072,-4.406,-4.4103,-4.412,-4.4142,-4.4185,-4.4253,-4.4299,-4.4364,-4.4505,-4.4513,-4.457,-4.4589,-4.4604,-4.4619,-4.4693,-4.4719,-4.4449,-4.4449,-4.4449,0,0,-4.3851,-4.3881,-4.393,-4.4019,-4.405,-4.4128,-4.4046,-4.4132,-4.4189,-4.4133,-4.4243,-4.426,-4.4306,-4.4434,-4.4492,-4.4454,-4.4695,-4.4619,-4.4631,-4.4637,-4.4708,-4.4733,-4.4756,-4.4457,-4.4456,-4.4455,0,0,-4.4023,-4.4054,-4.4155,-4.4189,-4.4238,-4.4241,-4.4266,-4.4306,-4.4316,-4.4425,-4.4385,-4.4451,-4.457,-4.4605,-4.4638,-4.4821,-4.4786,-4.4842,-4.4941,-4.5014,-4.5035,-4.5054,-4.5119,-4.5142,-4.4857,-4.4857,-4.4857,0,-4.4107,-4.4224,-4.421,-4.4299,-4.4339,-4.4292,-4.4393,-4.4426,-4.4493,-4.4521,-4.4477,-4.4625,-4.4653,-4.4788,-4.4833,-4.4861,-4.4887,-4.4837,-4.5034,-4.5052,-4.507,-4.5131,-4.5155,-4.4864,-4.4863,-4.4862,-4.4862,0,-4.4324,-4.4405,-4.448,-4.4547,-4.4595,-4.4689,-4.4689,-4.4739,-4.4722,-4.473,-4.4841,-4.4873,-4.4942,-4.4973,-4.4958,-4.5106,-4.5081,-4.5036,-4.4958,-4.5102,-4.5159,-4.5183,-4.4873,-4.4871,-4.4869,-4.4867,0,0,-4.4554,-4.4611,-4.4639,-4.4668,-4.4719,-4.4781,-4.4872,-4.4941,-4.4983,-4.5031,-4.5106,-4.5207,-4.5166,-4.5204,-4.5191,-4.5255,-4.5397,-4.5202,-4.5203,-4.5237,-4.5561,-4.5594,-4.5621,-4.5374,-4.5379,-4.5382,-4.5557,0,-4.4728,-4.4889,-4.4879,-4.5029,-4.5103,-4.5059,-4.5138,-4.5177,-4.5186,-4.5249,-4.5259,-4.5331,-4.5271,-4.5293,-4.5355,-4.5367,-4.5462,-4.5354,-4.5443,-4.5447,-4.5433,-4.5652,-4.5687,-4.585,-4.5579,-4.5583,-4.5586,0,-4.4953,-4.5009,-4.5167,-4.5205,-4.5235,-4.5307,-4.5369,-4.543,-4.5472,-4.5474,-4.5515,-4.5492,-4.5582,-4.5503,-4.5626,-4.5553,-4.5589,-4.56,-4.5606,-4.5614,-4.5525,-4.5665,-4.5902,-4.5926,-4.5621,-4.5618,-4.5615,0,-4.5104,-4.5219,-4.5328,-4.5354,-4.5401,-4.5452,-4.5474,-4.5512,-4.5553,-4.5606,-4.5633,-4.5696,-4.573,-4.5778,-4.5772,-4.5714,-4.5897,-4.5817,-4.59,-4.5901,-4.5941,-4.5939,-4.6187,-4.5965,-4.5964,-4.5964,-4.5963,0,-4.5299,-4.5398,-4.5396,-4.5463,-4.5571,-4.5558,-4.5665,-4.5681,-4.5714,-4.5782,-4.5748,-4.5812,-4.58,-4.5864,-4.5859,-4.5961,-4.5977,-4.598,-4.5978,-4.5984,-4.5983,-4.6007,-4.5995,-4.597,-4.5969,-4.5968,-4.5967,0,-4.5487,-4.549,-4.5605,-4.564,-4.5651,-4.573,-4.5759,-4.5821,-4.5827,-4.5914,-4.5933,-4.5942,-4.6016,-4.6014,-4.6097,-4.6094,-4.6219,-4.6204,-4.6206,-4.6202,-4.6285,-4.6278,-4.6558,-4.6593,-4.6348,-4.635,-4.6352,0,-4.5611,-4.5686,-4.5729,-4.5772,-4.5798,-4.5868,-4.591,-4.5899,-4.5944,-4.5997,-4.6053,-4.6123,-4.6179,-4.6298,-4.6311,-4.6374,-4.6359,-4.6453,-4.6368,-4.6371,-4.636,-4.6355,-4.6362,-4.647,-4.6472,-4.6475,-4.6476,0,-4.5832,-4.5829,-4.5892,-4.5955,-4.6007,-4.6056,-4.61,-4.6138,-4.6131,-4.6183,-4.6258,-4.6301,-4.6386,-4.6456,-4.6516,-4.6536,-4.6506,-4.6503,-4.6525,-4.6532,-4.6529,-4.6531,-4.625,-4.6496,-4.6494,-4.6493,-4.6492,-4.6491,-4.5991,-4.6055,-4.6095,-4.6165,-4.6198,-4.624,-4.6301,-4.6314,-4.6377,-4.6445,-4.6434,-4.6518,-4.6556,-4.6634,-4.666,-4.6724,-4.6691,-4.6723,-4.6732,-4.674,-4.6749,-4.6519,-4.6735,-4.6734,-4.6734,-4.6733,-4.6733,0,-4.6209,-4.6232,-4.6297,-4.6362,-4.6417,-4.6383,-4.643,-4.6478,-4.6553,-4.6591,-4.6647,-4.6732,-4.6799,-4.6817,-4.6881,-4.6929,-4.6916,-4.6946,-4.6942,-4.6947,-4.6775,-4.6749,-4.6955,-4.6955,-4.6955,-4.6955,-4.6955,-4.6955,-4.6329,-4.6435,-4.6437,-4.6558,-4.658,-4.6662,-4.6692,-4.673,-4.6761,-4.6858,-4.6914,-4.6925,-4.6955,-4.7021,-4.708,-4.7084,-4.7109,-4.7145,-4.7142,-4.6982,-4.6959,-4.6938,-4.6913,-4.715,-4.715,-4.7308,-4.731,-4.7311]}]]